FIN8CP EFIV-EFHK

Flight info

Callsign FIN8CP
Flight time 1h 20m
Altitude 36000
Route SOTIT DCT RENVI/N0440F370 Y86 LUSEP
Aircraft A319/M-SDE1E2E3FGIJ1M1RWXYZ/LB1

Departure

Time 2026-05-09 10:23
Airport Ivalo Airport (EFIV)

Arrival

Time 2026-05-09 11:43
Airport Helsinki Vantaa Airport (EFHK)
Time Latitude Longitude Altitude Speed Heading
2026-05-09 09:54 68.60863 27.41808 481 ft 0 kts 170°
2026-05-09 10:21 68.60861 27.41806 481 ft 0 kts 184°
2026-05-09 10:21 68.60861 27.41786 481 ft 1 kts 270°
2026-05-09 10:21 68.60892 27.41785 479 ft 9 kts
2026-05-09 10:21 68.60959 27.41689 477 ft 14 kts 316°
2026-05-09 10:22 68.61033 27.41502 473 ft 7 kts 318°
2026-05-09 10:22 68.61030 27.41416 474 ft 4 kts 227°
2026-05-09 10:22 68.61030 27.41414 474 ft 0 kts 227°
2026-05-09 10:23 68.60874 27.40957 473 ft 81 kts 227°
2026-05-09 10:23 68.60289 27.39237 638 ft 146 kts 226°
2026-05-09 10:23 68.59590 27.37162 1543 ft 151 kts 224°
2026-05-09 10:23 68.58877 27.35056 2511 ft 153 kts 224°
2026-05-09 10:24 68.58107 27.32804 3111 ft 171 kts 224°
2026-05-09 10:24 68.57270 27.30380 3857 ft 177 kts 225°
2026-05-09 10:24 68.56422 27.27924 4732 ft 177 kts 226°
2026-05-09 10:24 68.55579 27.25475 5606 ft 176 kts 227°
2026-05-09 10:25 68.54739 27.23030 6409 ft 178 kts 229°
2026-05-09 10:25 68.53864 27.20593 7102 ft 186 kts 223°
2026-05-09 10:25 68.52593 27.19204 7471 ft 218 kts 191°
2026-05-09 10:25 68.51001 27.18649 8031 ft 243 kts 191°
2026-05-09 10:26 68.49238 27.18068 8666 ft 265 kts 190°
2026-05-09 10:26 68.47359 27.17458 9561 ft 276 kts 191°
2026-05-09 10:26 68.45423 27.16828 10539 ft 285 kts 191°
2026-05-09 10:26 68.43367 27.16143 11028 ft 309 kts 191°
2026-05-09 10:27 68.41172 27.15402 11706 ft 324 kts 191°
2026-05-09 10:27 68.38934 27.14660 12569 ft 332 kts 191°
2026-05-09 10:27 68.36621 27.13899 13452 ft 339 kts 191°
2026-05-09 10:27 68.34254 27.13116 14271 ft 346 kts 191°
2026-05-09 10:28 68.31851 27.12329 15142 ft 348 kts 191°
2026-05-09 10:28 68.29432 27.11536 15977 ft 352 kts 191°
2026-05-09 10:28 68.26980 27.10723 16802 ft 357 kts 191°
2026-05-09 10:28 68.24499 27.09899 17609 ft 361 kts 191°
2026-05-09 10:29 68.21983 27.09064 18408 ft 366 kts 191°
2026-05-09 10:29 68.19470 27.08231 19123 ft 370 kts 191°
2026-05-09 10:29 68.16892 27.07379 19805 ft 375 kts 191°
2026-05-09 10:29 68.14279 27.06517 20509 ft 379 kts 191°
2026-05-09 10:30 68.11644 27.05652 21201 ft 383 kts 191°
2026-05-09 10:30 68.08978 27.04781 21890 ft 388 kts 191°
2026-05-09 10:30 68.06288 27.03905 22573 ft 392 kts 191°
2026-05-09 10:30 68.03556 27.03018 23253 ft 396 kts 192°
2026-05-09 10:31 68.00833 27.02136 23921 ft 401 kts 192°
2026-05-09 10:31 67.98049 27.01240 24475 ft 404 kts 191°
2026-05-09 10:31 67.95250 27.00341 25073 ft 406 kts 192°
2026-05-09 10:31 67.92434 26.99432 25641 ft 409 kts 192°
2026-05-09 10:32 67.89594 26.98513 26200 ft 412 kts 192°
2026-05-09 10:32 67.86732 26.97593 26754 ft 415 kts 192°
2026-05-09 10:32 67.83884 26.96684 27269 ft 418 kts 192°
2026-05-09 10:32 67.80984 26.95754 27804 ft 421 kts 193°
2026-05-09 10:33 67.78062 26.94821 28319 ft 424 kts 193°
2026-05-09 10:33 67.75109 26.93888 28846 ft 427 kts 193°
2026-05-09 10:33 67.72147 26.92956 29368 ft 430 kts 193°
2026-05-09 10:33 67.69161 26.92022 29862 ft 434 kts 193°
2026-05-09 10:34 67.66155 26.91084 30348 ft 437 kts 193°
2026-05-09 10:34 67.60120 26.89196 31154 ft 441 kts 193°
2026-05-09 10:34 67.57061 26.88234 31540 ft 444 kts 193°
2026-05-09 10:35 67.53978 26.87263 31878 ft 448 kts 193°
2026-05-09 10:35 67.50862 26.86290 32197 ft 452 kts 193°
2026-05-09 10:35 67.47740 26.85327 32664 ft 452 kts 193°
2026-05-09 10:35 67.44612 26.84367 33173 ft 451 kts 193°
2026-05-09 10:36 67.41491 26.83412 33674 ft 451 kts 193°
2026-05-09 10:36 67.38375 26.82464 34198 ft 450 kts 193°
2026-05-09 10:36 67.35307 26.81528 34628 ft 450 kts 192°
2026-05-09 10:36 67.32188 26.80570 35012 ft 450 kts 192°
2026-05-09 10:37 67.29076 26.79614 35356 ft 449 kts 192°
2026-05-09 10:37 67.25973 26.78663 35772 ft 448 kts 192°
2026-05-09 10:37 67.22876 26.77718 36132 ft 448 kts 192°
2026-05-09 10:37 67.19808 26.76788 36467 ft 448 kts 191°
2026-05-09 10:38 67.16705 26.75849 36788 ft 448 kts 191°
2026-05-09 10:38 67.13598 26.74915 37106 ft 449 kts 191°
2026-05-09 10:38 67.10489 26.73981 37294 ft 450 kts 191°
2026-05-09 10:38 67.07390 26.73054 37325 ft 446 kts 191°
2026-05-09 10:39 67.01244 26.71229 37320 ft 444 kts 191°
2026-05-09 10:39 66.95144 26.69406 37288 ft 443 kts 191°
2026-05-09 10:40 66.89032 26.67591 37316 ft 441 kts 191°
2026-05-09 10:40 66.82936 26.65808 37330 ft 440 kts 191°
2026-05-09 10:41 66.76882 26.64048 37332 ft 440 kts 191°
2026-05-09 10:41 66.70795 26.62279 37319 ft 440 kts 191°
2026-05-09 10:42 66.64709 26.60510 37326 ft 439 kts 191°
2026-05-09 10:42 66.58635 26.58748 37299 ft 439 kts 191°
2026-05-09 10:43 66.52561 26.57007 37315 ft 438 kts 191°
2026-05-09 10:43 66.46535 26.55275 37320 ft 438 kts 191°
2026-05-09 10:44 66.40472 26.53549 37322 ft 438 kts 191°
2026-05-09 10:44 66.34410 26.51824 37324 ft 438 kts 191°
2026-05-09 10:46 66.19304 26.47614 37312 ft 437 kts 191°
2026-05-09 10:46 66.13255 26.45927 37320 ft 436 kts 191°
2026-05-09 10:47 66.07254 26.44250 37325 ft 436 kts 191°
2026-05-09 10:47 66.01214 26.42565 37325 ft 436 kts 191°
2026-05-09 10:48 65.95178 26.40910 37326 ft 436 kts 191°
2026-05-09 10:48 65.89181 26.39294 37300 ft 436 kts 191°
2026-05-09 10:49 65.83128 26.37663 37307 ft 436 kts 191°
2026-05-09 10:49 65.77136 26.36051 37316 ft 436 kts 191°
2026-05-09 10:50 65.71096 26.34422 37322 ft 435 kts 191°
2026-05-09 10:50 65.65094 26.32804 37322 ft 436 kts 191°
2026-05-09 10:51 65.59064 26.31185 37323 ft 436 kts 191°
2026-05-09 10:51 65.54045 26.29865 37324 ft 436 kts 191°
2026-05-09 10:52 65.48001 26.28281 37325 ft 436 kts 191°
2026-05-09 10:52 65.41998 26.26709 37326 ft 436 kts 191°
2026-05-09 10:53 65.35966 26.25123 37331 ft 435 kts 191°
2026-05-09 10:53 65.29934 26.23550 37331 ft 435 kts 191°
2026-05-09 10:54 65.23942 26.21973 37309 ft 435 kts 191°
2026-05-09 10:54 65.17912 26.20414 37322 ft 435 kts 191°
2026-05-09 10:55 65.11893 26.18815 37327 ft 434 kts 192°
2026-05-09 10:55 65.05930 26.16841 37332 ft 433 kts 193°
2026-05-09 10:56 65.00006 26.14714 37339 ft 433 kts 193°
2026-05-09 10:56 64.94024 26.12639 37339 ft 433 kts 193°
2026-05-09 10:57 64.88057 26.10632 37324 ft 433 kts 193°
2026-05-09 10:57 64.82119 26.08662 37321 ft 433 kts 193°
2026-05-09 10:58 64.76151 26.06687 37328 ft 433 kts 193°
2026-05-09 10:58 64.70171 26.04705 37334 ft 433 kts 193°
2026-05-09 10:59 64.64233 26.02746 37335 ft 433 kts 193°
2026-05-09 10:59 64.58247 26.00795 37318 ft 433 kts 193°
2026-05-09 11:00 64.52284 25.98833 37330 ft 432 kts 192°
2026-05-09 11:00 64.46319 25.96890 37347 ft 432 kts 193°
2026-05-09 11:01 64.40396 25.94980 37348 ft 432 kts 193°
2026-05-09 11:01 64.34432 25.93072 37349 ft 432 kts 192°
2026-05-09 11:02 64.28467 25.91156 37346 ft 432 kts 193°
2026-05-09 11:02 64.22549 25.89248 37343 ft 431 kts 193°
2026-05-09 11:03 64.16597 25.87356 37351 ft 430 kts 193°
2026-05-09 11:03 64.10691 25.85485 37353 ft 430 kts 192°
2026-05-09 11:04 64.04743 25.83617 37361 ft 430 kts 192°
2026-05-09 11:04 63.98847 25.81773 37361 ft 430 kts 193°
2026-05-09 11:05 63.92923 25.79909 37338 ft 429 kts 192°
2026-05-09 11:05 63.86996 25.78065 37337 ft 429 kts 192°
2026-05-09 11:06 63.81074 25.76223 37340 ft 429 kts 192°
2026-05-09 11:06 63.75185 25.74411 37340 ft 429 kts 192°
2026-05-09 11:07 63.69245 25.72583 37341 ft 430 kts 192°
2026-05-09 11:07 63.63345 25.70779 37349 ft 430 kts 192°
2026-05-09 11:08 63.57399 25.68958 37343 ft 429 kts 192°
2026-05-09 11:08 63.51472 25.67147 37351 ft 429 kts 192°
2026-05-09 11:09 63.45583 25.65374 37356 ft 429 kts 192°
2026-05-09 11:09 63.39656 25.63595 37358 ft 429 kts 192°
2026-05-09 11:10 63.33733 25.61823 37357 ft 429 kts 192°
2026-05-09 11:10 63.27854 25.60060 37344 ft 429 kts 191°
2026-05-09 11:11 63.21927 25.58294 37353 ft 428 kts 191°
2026-05-09 11:11 63.16017 25.56546 37358 ft 428 kts 191°
2026-05-09 11:12 63.10100 25.54805 37369 ft 428 kts 191°
2026-05-09 11:12 63.04188 25.53068 37371 ft 428 kts 191°
2026-05-09 11:13 62.98282 25.51340 37350 ft 428 kts 191°
2026-05-09 11:13 62.92408 25.49631 37354 ft 428 kts 192°
2026-05-09 11:14 62.86505 25.47906 37367 ft 427 kts 192°
2026-05-09 11:14 62.80641 25.46199 37371 ft 426 kts 192°
2026-05-09 11:15 62.74744 25.44513 37371 ft 426 kts 192°
2026-05-09 11:15 62.68888 25.42846 37380 ft 426 kts 192°
2026-05-09 11:16 62.63010 25.41175 37365 ft 425 kts 192°
2026-05-09 11:16 62.57146 25.39502 37381 ft 424 kts 191°
2026-05-09 11:17 62.51278 25.37840 37386 ft 424 kts 192°
2026-05-09 11:17 62.45466 25.36187 37385 ft 423 kts 191°
2026-05-09 11:18 62.39616 25.34537 37386 ft 423 kts 191°
2026-05-09 11:18 62.33773 25.32913 37385 ft 423 kts 191°
2026-05-09 11:19 62.27955 25.31299 37364 ft 424 kts 192°
2026-05-09 11:19 62.22089 25.29655 37356 ft 426 kts 191°
2026-05-09 11:20 62.16185 25.28032 36936 ft 431 kts 191°
2026-05-09 11:20 62.13174 25.27199 35638 ft 439 kts 192°
2026-05-09 11:20 62.10127 25.26350 34604 ft 441 kts 192°
2026-05-09 11:20 62.07143 25.25530 33661 ft 432 kts 192°
2026-05-09 11:21 62.04179 25.24723 32643 ft 425 kts 191°
2026-05-09 11:21 62.01260 25.23933 31798 ft 420 kts 192°
2026-05-09 11:21 61.98379 25.23154 31213 ft 415 kts 192°
2026-05-09 11:21 61.95537 25.22385 30696 ft 409 kts 192°
2026-05-09 11:22 61.92737 25.21625 30147 ft 404 kts 192°
2026-05-09 11:22 61.89966 25.20870 29646 ft 396 kts 192°
2026-05-09 11:22 61.87252 25.20131 29162 ft 390 kts 191°
2026-05-09 11:22 61.84581 25.19402 28700 ft 383 kts 191°
2026-05-09 11:23 61.81988 25.18698 28250 ft 378 kts 191°
2026-05-09 11:23 61.79390 25.17996 27816 ft 373 kts 191°
2026-05-09 11:23 61.76826 25.17308 27391 ft 369 kts 191°
2026-05-09 11:23 61.74287 25.16625 26970 ft 366 kts 191°
2026-05-09 11:24 61.71764 25.15945 26547 ft 362 kts 191°
2026-05-09 11:24 61.69306 25.15285 26142 ft 358 kts 191°
2026-05-09 11:24 61.66835 25.14622 25657 ft 356 kts 191°
2026-05-09 11:24 61.64388 25.13963 25280 ft 352 kts 190°
2026-05-09 11:25 61.61962 25.13311 24841 ft 350 kts 190°
2026-05-09 11:25 61.59545 25.12667 24387 ft 349 kts 190°
2026-05-09 11:25 61.57137 25.12027 23936 ft 348 kts 190°
2026-05-09 11:25 61.54755 25.11395 23426 ft 348 kts 190°
2026-05-09 11:26 61.52357 25.10759 22966 ft 345 kts 190°
2026-05-09 11:26 61.49972 25.10131 22506 ft 343 kts 189°
2026-05-09 11:26 61.47603 25.09508 22053 ft 341 kts 189°
2026-05-09 11:26 61.45279 25.08902 21615 ft 339 kts 189°
2026-05-09 11:27 61.42941 25.08289 21177 ft 337 kts 189°
2026-05-09 11:27 61.40626 25.07680 20732 ft 335 kts 189°
2026-05-09 11:27 61.38318 25.07073 20298 ft 333 kts 189°
2026-05-09 11:27 61.36025 25.06479 19872 ft 331 kts 189°
2026-05-09 11:28 61.33739 25.05881 19445 ft 329 kts 189°
2026-05-09 11:28 61.31465 25.05281 19020 ft 328 kts 189°
2026-05-09 11:28 61.29230 25.04698 18594 ft 327 kts 189°
2026-05-09 11:28 61.26971 25.04113 18157 ft 325 kts 189°
2026-05-09 11:29 61.24722 25.03533 17739 ft 323 kts 189°
2026-05-09 11:29 61.22523 25.02963 17333 ft 320 kts 189°
2026-05-09 11:29 61.20318 25.02389 16931 ft 317 kts 189°
2026-05-09 11:29 61.18135 25.01823 16539 ft 315 kts 188°
2026-05-09 11:30 61.15962 25.01260 16145 ft 313 kts 188°
2026-05-09 11:30 61.13798 25.00696 15755 ft 312 kts 188°
2026-05-09 11:30 61.11641 25.00141 15361 ft 310 kts 188°
2026-05-09 11:30 61.09523 24.99597 14980 ft 309 kts 187°
2026-05-09 11:31 61.07394 24.99050 14584 ft 308 kts 187°
2026-05-09 11:31 61.05268 24.98501 14158 ft 307 kts 186°
2026-05-09 11:31 61.03103 24.97946 13391 ft 316 kts 186°
2026-05-09 11:31 61.00929 24.97384 12971 ft 312 kts 186°
2026-05-09 11:32 60.98783 24.96829 12570 ft 308 kts 186°
2026-05-09 11:32 60.96690 24.96288 12380 ft 297 kts 186°
2026-05-09 11:32 60.94687 24.95779 12053 ft 293 kts 186°
2026-05-09 11:32 60.92667 24.95268 11690 ft 291 kts 186°
2026-05-09 11:33 60.90676 24.94763 11350 ft 287 kts 186°
2026-05-09 11:33 60.88693 24.94253 10915 ft 287 kts 187°
2026-05-09 11:33 60.84741 24.93240 10152 ft 283 kts 186°
2026-05-09 11:34 60.82802 24.92750 9614 ft 280 kts 186°
2026-05-09 11:34 60.80867 24.92264 9078 ft 280 kts 185°
2026-05-09 11:34 60.78959 24.91784 8667 ft 277 kts 184°
2026-05-09 11:34 60.77070 24.91310 8225 ft 277 kts 184°
2026-05-09 11:35 60.75158 24.90826 7780 ft 275 kts 184°
2026-05-09 11:35 60.73265 24.90350 7394 ft 273 kts 184°
2026-05-09 11:35 60.71379 24.89879 6951 ft 272 kts 184°
2026-05-09 11:35 60.69502 24.89407 6486 ft 271 kts 184°
2026-05-09 11:36 60.67638 24.88933 6040 ft 268 kts 184°
2026-05-09 11:36 60.65801 24.88466 5601 ft 266 kts 184°
2026-05-09 11:36 60.63957 24.88004 5221 ft 263 kts 184°
2026-05-09 11:36 60.62144 24.87553 4762 ft 261 kts 184°
2026-05-09 11:37 60.60380 24.87113 4409 ft 256 kts 184°
2026-05-09 11:37 60.58620 24.86678 3949 ft 255 kts 185°
2026-05-09 11:37 60.56862 24.86240 3503 ft 252 kts 184°
2026-05-09 11:37 60.55121 24.85804 3053 ft 251 kts 185°
2026-05-09 11:38 60.53384 24.85370 2581 ft 251 kts 185°
2026-05-09 11:38 60.51660 24.84940 2179 ft 249 kts 185°
2026-05-09 11:38 60.49983 24.84521 2005 ft 235 kts 184°
2026-05-09 11:38 60.48415 24.84127 1995 ft 219 kts 183°
2026-05-09 11:39 60.46944 24.83755 1994 ft 206 kts 184°
2026-05-09 11:39 60.45582 24.83775 2013 ft 187 kts 164°
2026-05-09 11:39 60.44418 24.84706 1999 ft 174 kts 149°
2026-05-09 11:40 60.42395 24.86793 2016 ft 156 kts 150°
2026-05-09 11:40 60.41446 24.87775 1965 ft 151 kts 149°
2026-05-09 11:40 60.40549 24.88700 1865 ft 140 kts 148°
2026-05-09 11:40 60.39701 24.89574 1697 ft 133 kts 149°
2026-05-09 11:41 60.38895 24.90405 1524 ft 128 kts 148°
2026-05-09 11:41 60.38117 24.91209 1355 ft 123 kts 147°
2026-05-09 11:41 60.37358 24.91991 1185 ft 123 kts 148°
2026-05-09 11:41 60.36600 24.92770 1021 ft 122 kts 148°
2026-05-09 11:42 60.36094 24.93276 885 ft 122 kts 148°
2026-05-09 11:42 60.35332 24.94042 716 ft 124 kts 147°
2026-05-09 11:42 60.34575 24.94846 585 ft 123 kts 147°
2026-05-09 11:42 60.33819 24.95640 395 ft 122 kts 149°
2026-05-09 11:43 60.33068 24.96403 228 ft 120 kts 149°
2026-05-09 11:43 60.32356 24.97135 162 ft 104 kts 152°
2026-05-09 11:43 60.31833 24.97691 152 ft 61 kts 153°
2026-05-09 11:43 60.31570 24.97953 156 ft 33 kts 154°
2026-05-09 11:44 60.31435 24.97928 157 ft 17 kts 229°
2026-05-09 11:44 60.31429 24.97755 161 ft 14 kts 327°
2026-05-09 11:44 60.31516 24.97663 161 ft 15 kts 332°
2026-05-09 11:44 60.31608 24.97567 162 ft 15 kts 333°
2026-05-09 11:45 60.31709 24.97463 161 ft 17 kts 333°
2026-05-09 11:45 60.31820 24.97350 162 ft 18 kts 333°
2026-05-09 11:45 60.31916 24.97251 162 ft 10 kts 333°
2026-05-09 11:45 60.31925 24.97148 163 ft 8 kts 248°
2026-05-09 11:46 60.31955 24.97062 163 ft 9 kts 330°
2026-05-09 11:46 60.31960 24.96973 163 ft 5 kts 246°
2026-05-09 11:46 60.31949 24.96935 164 ft 1 kts 239°
2026-05-09 11:46 60.31945 24.96921 164 ft 1 kts 241°
2026-05-09 11:47 60.31944 24.96919 164 ft 0 kts 241°